Time,TemperatureF,DewpointF,PressureIn,WindDirection,WindDirectionDegrees,WindSpeedMPH,WindSpeedGustMPH,Humidity,HourlyPrecipIn,Conditions,Clouds,dailyrainin,SoftwareType,DateUTC
2013-03-07 00:02:00,24.0,-99.9,-100.00,ENE,66,2.0,-999.0,-999,0.00,,,0.00,,2013-03-07 06:02:00,
2013-03-07 00:11:00,24.0,-99.9,-100.00,ENE,66,2.0,-999.0,-999,0.00,,,0.00,,2013-03-07 06:11:00,
2013-03-07 00:22:00,24.0,-99.9,-100.00,ENE,66,2.0,-999.0,-999,0.00,,,0.00,,2013-03-07 06:22:00,
2013-03-07 00:32:00,22.0,-99.9,-100.00,SE,141,0.0,-999.0,-999,0.00,,,0.00,,2013-03-07 06:32:00,
2013-03-07 00:42:00,22.0,-99.9,-100.00,SE,141,0.0,-999.0,-999,0.00,,,0.00,,2013-03-07 06:42:00,
2013-03-07 00:52:00,22.0,-99.9,-100.00,SE,141,0.0,-999.0,-999,0.00,,,0.00,,2013-03-07 06:52:00,
2013-03-07 01:02:00,22.0,-99.9,-100.00,East,83,1.0,-999.0,-999,0.00,,,0.00,,2013-03-07 07:02:00,
2013-03-07 01:11:00,22.0,-99.9,-100.00,East,83,1.0,-999.0,-999,0.00,,,0.00,,2013-03-07 07:11:00,
2013-03-07 01:22:00,22.0,-99.9,-100.00,East,83,1.0,-999.0,-999,0.00,,,0.00,,2013-03-07 07:22:00,
2013-03-07 01:32:00,22.0,-99.9,-100.00,East,85,2.0,-999.0,-999,0.00,,,0.00,,2013-03-07 07:32:00,
2013-03-07 01:43:00,22.0,-99.9,-100.00,East,85,2.0,-999.0,-999,0.00,,,0.00,,2013-03-07 07:43:00,
2013-03-07 01:53:00,22.0,-99.9,-100.00,East,85,2.0,-999.0,-999,0.00,,,0.00,,2013-03-07 07:53:00,
2013-03-07 02:03:00,22.0,-99.9,-100.00,ESE,107,2.0,-999.0,-999,0.00,,,0.00,,2013-03-07 08:03:00,
2013-03-07 02:12:00,22.0,-99.9,-100.00,ESE,107,2.0,-999.0,-999,0.00,,,0.00,,2013-03-07 08:12:00,
2013-03-07 02:23:00,22.0,-99.9,-100.00,ESE,107,2.0,-999.0,-999,0.00,,,0.00,,2013-03-07 08:23:00,
2013-03-07 02:34:00,21.0,-99.9,-100.00,East,90,2.0,-999.0,-999,0.00,,,0.00,,2013-03-07 08:34:00,
2013-03-07 02:45:00,21.0,-99.9,-100.00,East,90,2.0,-999.0,-999,0.00,,,0.00,,2013-03-07 08:45:00,
2013-03-07 02:55:00,21.0,-99.9,-100.00,East,90,2.0,-999.0,-999,0.00,,,0.00,,2013-03-07 08:55:00,
2013-03-07 03:04:00,21.0,-99.9,-100.00,East,101,1.0,-999.0,-999,0.00,,,0.00,,2013-03-07 09:04:00,
2013-03-07 03:14:00,21.0,-99.9,-100.00,East,101,1.0,-999.0,-999,0.00,,,0.00,,2013-03-07 09:14:00,
2013-03-07 03:24:00,21.0,-99.9,-100.00,East,101,1.0,-999.0,-999,0.00,,,0.00,,2013-03-07 09:24:00,
2013-03-07 03:33:00,22.0,-99.9,-100.00,NE,49,3.0,-999.0,-999,0.00,,,0.00,,2013-03-07 09:33:00,
2013-03-07 03:43:00,22.0,-99.9,-100.00,NE,49,3.0,-999.0,-999,0.00,,,0.00,,2013-03-07 09:43:00,
2013-03-07 03:54:00,22.0,-99.9,-100.00,NE,49,3.0,-999.0,-999,0.00,,,0.00,,2013-03-07 09:54:00,
2013-03-07 04:04:00,21.0,-99.9,-100.00,East,80,3.0,-999.0,-999,0.00,,,0.00,,2013-03-07 10:04:00,
2013-03-07 04:14:00,21.0,-99.9,-100.00,East,80,3.0,-999.0,-999,0.00,,,0.00,,2013-03-07 10:14:00,
2013-03-07 04:24:00,21.0,-99.9,-100.00,East,80,3.0,-999.0,-999,0.00,,,0.00,,2013-03-07 10:24:00,
2013-03-07 04:34:00,20.0,-99.9,-100.00,East,92,2.0,-999.0,-999,0.00,,,0.00,,2013-03-07 10:34:00,
2013-03-07 04:43:00,20.0,-99.9,-100.00,East,92,2.0,-999.0,-999,0.00,,,0.00,,2013-03-07 10:43:00,
2013-03-07 04:54:00,20.0,-99.9,-100.00,East,92,2.0,-999.0,-999,0.00,,,0.00,,2013-03-07 10:54:00,
2013-03-07 05:04:00,20.0,-99.9,-100.00,ESE,107,3.0,-999.0,-999,0.00,,,0.00,,2013-03-07 11:04:00,
2013-03-07 05:12:00,20.0,-99.9,-100.00,ESE,107,3.0,-999.0,-999,0.00,,,0.00,,2013-03-07 11:12:00,
2013-03-07 05:24:00,20.0,-99.9,-100.00,ESE,107,3.0,-999.0,-999,0.00,,,0.00,,2013-03-07 11:24:00,
2013-03-07 05:34:00,20.0,-99.9,-100.00,ESE,103,2.0,-999.0,-999,0.00,,,0.00,,2013-03-07 11:34:00,
2013-03-07 05:44:00,20.0,-99.9,-100.00,ESE,103,2.0,-999.0,-999,0.00,,,0.00,,2013-03-07 11:44:00,
2013-03-07 05:55:00,20.0,-99.9,-100.00,ESE,103,2.0,-999.0,-999,0.00,,,0.00,,2013-03-07 11:55:00,
2013-03-07 06:04:00,21.0,-99.9,-100.00,ESE,104,3.0,-999.0,-999,0.00,,,0.00,,2013-03-07 12:04:00,
2013-03-07 06:13:00,21.0,-99.9,-100.00,ESE,104,3.0,-999.0,-999,0.00,,,0.00,,2013-03-07 12:13:00,
2013-03-07 06:30:00,20.0,-99.9,-100.00,East,86,1.0,-999.0,-999,0.00,,,0.00,,2013-03-07 12:30:00,
2013-03-07 06:34:00,20.0,-99.9,-100.00,ESE,116,0.0,-999.0,-999,0.00,,,0.00,,2013-03-07 12:34:00,
2013-03-07 06:43:00,20.0,-99.9,-100.00,ESE,116,0.0,-999.0,-999,0.00,,,0.00,,2013-03-07 12:43:00,
2013-03-07 06:53:00,20.0,-99.9,-100.00,ESE,116,0.0,-999.0,-999,0.00,,,0.00,,2013-03-07 12:53:00,
2013-03-07 07:03:00,20.0,-99.9,-100.00,East,86,1.0,-999.0,-999,0.00,,,0.00,,2013-03-07 13:03:00,
2013-03-07 07:13:00,20.0,-99.9,-100.00,East,86,1.0,-999.0,-999,0.00,,,0.00,,2013-03-07 13:13:00,
2013-03-07 07:23:00,20.0,-99.9,-100.00,East,86,1.0,-999.0,-999,0.00,,,0.00,,2013-03-07 13:23:00,
2013-03-07 08:02:00,21.0,-99.9,-100.00,SSW,194,2.0,-999.0,-999,0.00,,,0.00,,2013-03-07 14:02:00,
2013-03-07 08:13:00,21.0,-99.9,-100.00,SSW,194,2.0,-999.0,-999,0.00,,,0.00,,2013-03-07 14:13:00,
2013-03-07 08:23:00,21.0,-99.9,-100.00,SSW,194,2.0,-999.0,-999,0.00,,,0.00,,2013-03-07 14:23:00,
2013-03-07 08:34:00,21.0,-99.9,-100.00,SE,127,2.0,-999.0,-999,0.00,,,0.00,,2013-03-07 14:34:00,
2013-03-07 08:43:00,21.0,-99.9,-100.00,SE,127,2.0,-999.0,-999,0.00,,,0.00,,2013-03-07 14:43:00,
2013-03-07 08:54:00,21.0,-99.9,-100.00,SE,127,2.0,-999.0,-999,0.00,,,0.00,,2013-03-07 14:54:00,
2013-03-07 09:00:00,29.0,-99.9,-100.00,South,169,2.0,-999.0,-999,0.00,,,0.00,,2013-03-07 15:00:00,
2013-03-07 09:03:00,26.0,-99.9,-100.00,SSW,198,2.0,-999.0,-999,0.00,,,-99.99,,2013-03-07 15:03:00,
2013-03-07 09:13:00,26.0,-99.9,-100.00,SSW,198,2.0,-999.0,-999,0.00,,,-99.99,,2013-03-07 15:13:00,
2013-03-07 09:23:00,26.0,-99.9,-100.00,SSW,198,2.0,-999.0,-999,0.00,,,-99.99,,2013-03-07 15:23:00,
2013-03-07 09:33:00,29.0,-99.9,-100.00,South,169,2.0,-999.0,-999,0.00,,,0.00,,2013-03-07 15:33:00,
2013-03-07 09:43:00,29.0,-99.9,-100.00,South,169,2.0,-999.0,-999,0.00,,,0.00,,2013-03-07 15:43:00,
2013-03-07 09:53:00,29.0,-99.9,-100.00,South,169,2.0,-999.0,-999,0.00,,,0.00,,2013-03-07 15:53:00,
2013-03-07 10:33:00,31.0,-99.9,-100.00,SSE,155,5.0,-999.0,-999,0.00,,,0.00,,2013-03-07 16:33:00,
2013-03-07 10:43:00,31.0,-99.9,-100.00,SSE,155,5.0,-999.0,-999,0.00,,,0.00,,2013-03-07 16:43:00,
2013-03-07 10:53:00,31.0,-99.9,-100.00,SSE,155,5.0,-999.0,-999,0.00,,,0.00,,2013-03-07 16:53:00,
2013-03-07 11:03:00,32.0,-99.9,-100.00,SSE,159,5.0,-999.0,-999,0.00,,,0.00,,2013-03-07 17:03:00,
2013-03-07 11:13:00,32.0,-99.9,-100.00,SSE,159,5.0,-999.0,-999,0.00,,,0.00,,2013-03-07 17:13:00,
2013-03-07 11:23:00,32.0,-99.9,-100.00,SSE,159,5.0,-999.0,-999,0.00,,,0.00,,2013-03-07 17:23:00,
2013-03-07 11:34:00,34.0,-99.9,-100.00,South,171,5.0,-999.0,-999,0.00,,,0.00,,2013-03-07 17:34:00,
2013-03-07 11:44:00,34.0,-99.9,-100.00,South,171,5.0,-999.0,-999,0.00,,,0.00,,2013-03-07 17:44:00,
2013-03-07 11:55:00,34.0,-99.9,-100.00,South,171,5.0,-999.0,-999,0.00,,,0.00,,2013-03-07 17:55:00,
2013-03-07 12:04:00,33.0,-99.9,-100.00,South,171,5.0,-999.0,-999,0.00,,,0.00,,2013-03-07 18:04:00,
2013-03-07 12:13:00,33.0,-99.9,-100.00,South,171,5.0,-999.0,-999,0.00,,,0.00,,2013-03-07 18:13:00,
2013-03-07 12:22:00,33.0,-99.9,-100.00,South,171,5.0,-999.0,-999,0.00,,,0.00,,2013-03-07 18:22:00,
2013-03-07 12:33:00,35.0,-99.9,-100.00,South,169,4.0,-999.0,-999,0.00,,,0.00,,2013-03-07 18:33:00,
2013-03-07 12:43:00,35.0,-99.9,-100.00,South,169,4.0,-999.0,-999,0.00,,,0.00,,2013-03-07 18:43:00,
2013-03-07 12:53:00,35.0,-99.9,-100.00,South,169,4.0,-999.0,-999,0.00,,,0.00,,2013-03-07 18:53:00,
2013-03-07 13:00:00,38.0,-99.9,-100.00,South,175,4.0,-999.0,-999,0.00,,,0.00,,2013-03-07 19:00:00,
2013-03-07 13:04:00,36.0,-99.9,-100.00,South,174,4.0,-999.0,-999,0.00,,,0.00,,2013-03-07 19:04:00,
2013-03-07 13:13:00,36.0,-99.9,-100.00,South,174,4.0,-999.0,-999,0.00,,,0.00,,2013-03-07 19:13:00,
2013-03-07 13:24:00,36.0,-99.9,-100.00,South,174,4.0,-999.0,-999,0.00,,,0.00,,2013-03-07 19:24:00,
2013-03-07 13:35:00,38.0,-99.9,-100.00,South,175,4.0,-999.0,-999,0.00,,,0.00,,2013-03-07 19:35:00,
2013-03-07 13:44:00,38.0,-99.9,-100.00,South,175,4.0,-999.0,-999,0.00,,,0.00,,2013-03-07 19:44:00,
2013-03-07 13:53:00,38.0,-99.9,-100.00,South,175,4.0,-999.0,-999,0.00,,,0.00,,2013-03-07 19:53:00,
2013-03-07 14:14:00,39.0,-99.9,-100.00,South,174,5.0,-999.0,-999,0.00,,,0.00,,2013-03-07 20:14:00,
2013-03-07 14:34:00,39.0,-99.9,-100.00,SE,143,3.0,-999.0,-999,0.00,,,0.00,,2013-03-07 20:34:00,
2013-03-07 14:44:00,39.0,-99.9,-100.00,SE,143,3.0,-999.0,-999,0.00,,,0.00,,2013-03-07 20:44:00,
2013-03-07 14:54:00,39.0,-99.9,-100.00,SE,143,3.0,-999.0,-999,0.00,,,0.00,,2013-03-07 20:54:00,
2013-03-07 15:03:00,42.0,-99.9,-100.00,SSE,163,3.0,-999.0,-999,0.00,,,0.00,,2013-03-07 21:03:00,
2013-03-07 15:13:00,42.0,-99.9,-100.00,SSE,163,3.0,-999.0,-999,0.00,,,0.00,,2013-03-07 21:13:00,
2013-03-07 15:23:00,42.0,-99.9,-100.00,SSE,163,3.0,-999.0,-999,0.00,,,0.00,,2013-03-07 21:23:00,
2013-03-07 15:33:00,36.0,-99.9,-100.00,ESE,103,5.0,-999.0,-999,0.00,,,0.00,,2013-03-07 21:33:00,
2013-03-07 15:43:00,36.0,-99.9,-100.00,ESE,103,5.0,-999.0,-999,0.00,,,0.00,,2013-03-07 21:43:00,
2013-03-07 15:53:00,36.0,-99.9,-100.00,ESE,103,5.0,-999.0,-999,0.00,,,0.00,,2013-03-07 21:53:00,
2013-03-07 16:02:00,37.0,-99.9,-100.00,ESE,117,6.0,-999.0,-999,0.00,,,0.00,,2013-03-07 22:02:00,
2013-03-07 16:12:00,37.0,-99.9,-100.00,ESE,117,6.0,-999.0,-999,0.00,,,0.00,,2013-03-07 22:12:00,
2013-03-07 16:23:00,37.0,-99.9,-100.00,ESE,117,6.0,-999.0,-999,0.00,,,0.00,,2013-03-07 22:23:00,
2013-03-07 16:33:00,37.0,-99.9,-100.00,East,100,6.0,-999.0,-999,0.00,,,0.00,,2013-03-07 22:33:00,
2013-03-07 16:44:00,37.0,-99.9,-100.00,East,100,6.0,-999.0,-999,0.00,,,0.00,,2013-03-07 22:44:00,
2013-03-07 16:55:00,37.0,-99.9,-100.00,East,100,6.0,-999.0,-999,0.00,,,0.00,,2013-03-07 22:55:00,
2013-03-07 17:04:00,37.0,-99.9,-100.00,ESE,104,7.0,-999.0,-999,0.00,,,0.00,,2013-03-07 23:04:00,
2013-03-07 17:13:00,37.0,-99.9,-100.00,ESE,104,7.0,-999.0,-999,0.00,,,0.00,,2013-03-07 23:13:00,
2013-03-07 17:23:00,37.0,-99.9,-100.00,ESE,104,7.0,-999.0,-999,0.00,,,0.00,,2013-03-07 23:23:00,
2013-03-07 17:35:00,37.0,-99.9,-100.00,ESE,120,9.0,-999.0,-999,0.00,,,0.00,,2013-03-07 23:35:00,
2013-03-07 17:44:00,37.0,-99.9,-100.00,ESE,120,9.0,-999.0,-999,0.00,,,0.00,,2013-03-07 23:44:00,
2013-03-07 17:54:00,37.0,-99.9,-100.00,ESE,120,9.0,-999.0,-999,0.00,,,0.00,,2013-03-07 23:54:00,
2013-03-07 18:13:00,37.0,-99.9,-100.00,East,101,7.0,-999.0,-999,0.00,,,0.00,,2013-03-08 00:13:00,
2013-03-07 18:23:00,37.0,-99.9,-100.00,East,101,7.0,-999.0,-999,0.00,,,0.00,,2013-03-08 00:23:00,
2013-03-07 18:35:00,37.0,-99.9,-100.00,ESE,104,5.0,-999.0,-999,0.00,,,0.00,,2013-03-08 00:35:00,
2013-03-07 18:44:00,37.0,-99.9,-100.00,ESE,104,5.0,-999.0,-999,0.00,,,0.00,,2013-03-08 00:44:00,
2013-03-07 18:54:00,37.0,-99.9,-100.00,ESE,104,5.0,-999.0,-999,0.00,,,0.00,,2013-03-08 00:54:00,
2013-03-07 19:02:00,35.0,-99.9,-100.00,East,93,6.0,-999.0,-999,0.00,,,0.00,,2013-03-08 01:02:00,
2013-03-07 19:12:00,35.0,-99.9,-100.00,East,93,6.0,-999.0,-999,0.00,,,0.00,,2013-03-08 01:12:00,
2013-03-07 19:22:00,35.0,-99.9,-100.00,East,93,6.0,-999.0,-999,0.00,,,0.00,,2013-03-08 01:22:00,
2013-03-07 19:33:00,36.0,-99.9,-100.00,East,101,6.0,-999.0,-999,0.00,,,0.00,,2013-03-08 01:33:00,
2013-03-07 19:42:00,36.0,-99.9,-100.00,East,101,6.0,-999.0,-999,0.00,,,0.00,,2013-03-08 01:42:00,
2013-03-07 19:52:00,36.0,-99.9,-100.00,East,101,6.0,-999.0,-999,0.00,,,0.00,,2013-03-08 01:52:00,
2013-03-07 20:02:00,35.0,-99.9,-100.00,East,86,5.0,-999.0,-999,0.00,,,0.00,,2013-03-08 02:02:00,
2013-03-07 20:12:00,35.0,-99.9,-100.00,East,86,5.0,-999.0,-999,0.00,,,0.00,,2013-03-08 02:12:00,
2013-03-07 20:22:00,35.0,-99.9,-100.00,East,86,5.0,-999.0,-999,0.00,,,0.00,,2013-03-08 02:22:00,
2013-03-07 20:32:00,34.0,-99.9,-100.00,East,80,4.0,-999.0,-999,0.00,,,0.00,,2013-03-08 02:32:00,
2013-03-07 20:42:00,34.0,-99.9,-100.00,East,80,4.0,-999.0,-999,0.00,,,0.00,,2013-03-08 02:42:00,
2013-03-07 20:53:00,34.0,-99.9,-100.00,East,80,4.0,-999.0,-999,0.00,,,0.00,,2013-03-08 02:53:00,
2013-03-07 21:02:00,34.0,-99.9,-100.00,East,90,9.0,-999.0,-999,0.00,,,0.00,,2013-03-08 03:02:00,
2013-03-07 21:12:00,34.0,-99.9,-100.00,East,90,9.0,-999.0,-999,0.00,,,0.00,,2013-03-08 03:12:00,
2013-03-07 21:23:00,34.0,-99.9,-100.00,East,90,9.0,-999.0,-999,0.00,,,0.00,,2013-03-08 03:23:00,
2013-03-07 21:33:00,35.0,-99.9,-100.00,ESE,103,13.0,-999.0,-999,0.00,,,0.00,,2013-03-08 03:33:00,
2013-03-07 21:43:00,35.0,-99.9,-100.00,ESE,103,13.0,-999.0,-999,0.00,,,0.00,,2013-03-08 03:43:00,
2013-03-07 21:53:00,35.0,-99.9,-100.00,ESE,103,13.0,-999.0,-999,0.00,,,0.00,,2013-03-08 03:53:00,
2013-03-07 22:02:00,34.0,-99.9,-100.00,ESE,103,9.0,-999.0,-999,0.00,,,0.00,,2013-03-08 04:02:00,
2013-03-07 22:12:00,34.0,-99.9,-100.00,ESE,103,9.0,-999.0,-999,0.00,,,0.00,,2013-03-08 04:12:00,
2013-03-07 22:22:00,34.0,-99.9,-100.00,ESE,103,9.0,-999.0,-999,0.00,,,0.00,,2013-03-08 04:22:00,
2013-03-07 22:32:00,34.0,-99.9,-100.00,ESE,120,11.0,-999.0,-999,0.00,,,0.00,,2013-03-08 04:32:00,
2013-03-07 22:43:00,34.0,-99.9,-100.00,ESE,120,11.0,-999.0,-999,0.00,,,0.00,,2013-03-08 04:43:00,
2013-03-07 22:52:00,34.0,-99.9,-100.00,ESE,120,11.0,-999.0,-999,0.00,,,0.00,,2013-03-08 04:52:00,
2013-03-07 23:02:00,33.0,-99.9,-100.00,SE,139,6.0,-999.0,-999,0.00,,,0.00,,2013-03-08 05:02:00,
2013-03-07 23:12:00,33.0,-99.9,-100.00,SE,139,6.0,-999.0,-999,0.00,,,0.00,,2013-03-08 05:12:00,
2013-03-07 23:22:00,33.0,-99.9,-100.00,SE,139,6.0,-999.0,-999,0.00,,,0.00,,2013-03-08 05:22:00,
2013-03-07 23:33:00,33.0,-99.9,-100.00,SE,136,6.0,-999.0,-999,0.00,,,0.00,,2013-03-08 05:33:00,
2013-03-07 23:43:00,33.0,-99.9,-100.00,SE,136,6.0,-999.0,-999,0.00,,,0.00,,2013-03-08 05:43:00,
2013-03-07 23:52:00,33.0,-99.9,-100.00,SE,136,6.0,-999.0,-999,0.00,,,0.00,,2013-03-08 05:52:00,